Weather History for Lee's Summit, MO

Change the Weather History Date:

Friday, December 7, 2012

  Actual Average (KMKC) Record (KMKC)
Temperature  
Mean Temperature 45 °F -  
Max Temperature 48 °F 44 °F 62 °F (2000)
Min Temperature 42 °F 28 °F 5 °F (2013)
Degree Days  
Heating Degree Days 20    
Moisture  
Dew Point 42 °F    
Average Humidity 89    
Maximum Humidity 100    
Minimum Humidity 80    
Precipitation  
Precipitation 0.02 in - - ()
Sea Level Pressure  
Sea Level Pressure 29.90 in    
Wind  
Wind Speed 7 mph (NNE)    
Max Wind Speed 12 mph    
Max Gust Speed -    
Visibility 6 miles    
Events Rain    
Averages and records for this station are not official NWS values.
T = Trace of Precipitation, MM = Missing Value Source: NWS Daily Summary

Daily Weather History Graph

Daily Weather History Graph

Search for Another Location

Airport:

Trip Planner

Search our weather history database for the weather conditions in past years. The results will help you decide how hot, cold, wet, or windy it might be!

Date:

Astronomy

Dec. 07, 2012 Rise Set
Actual Time 7:23 AM CST 4:55 PM CST
Civil Twilight 6:53 AM CST 5:24 PM CST
Nautical Twilight 6:20 AM CST 5:58 PM CST
Astronomical Twilight 5:47 AM CST 6:30 PM CST
Moon 12:46 AM CST (12/7) 12:49 PM CST (12/7)
Length of Visible Light 10h 31m
Length of Day
9h 31m
Last Quarter, 38% of the Moon is Illuminated
Dec 7
Last Quarter
Dec 13
New
Dec 19
First Quarter
Dec 28
Full
Jan 4
Last Quarter

Hourly Weather History & Observations

Time (CST) Temp. Windchill Dew Point Humidity Pressure Visibility Wind Dir Wind Speed Gust Speed Precip Events Conditions
12:53 AM 46.0 °F 42.5 °F 43.0 °F 89% 29.91 in 6.0 mi North 6.9 mph - 0.00 in Rain Light Rain
1:53 AM 46.0 °F 42.5 °F 43.0 °F 89% 29.91 in 5.0 mi NNE 6.9 mph - 0.01 in   Overcast
2:07 AM 46.4 °F 43.5 °F 44.6 °F 93% 29.90 in 5.0 mi NE 5.8 mph - 0.00 in Rain Light Rain
2:26 AM 46.4 °F 43.5 °F 44.6 °F 93% 29.90 in 4.0 mi North 5.8 mph - 0.00 in Rain Light Rain
2:41 AM 44.6 °F 41.4 °F 44.6 °F 100% 29.90 in 3.0 mi North 5.8 mph - 0.01 in   Overcast
2:53 AM 45.0 °F 41.2 °F 44.1 °F 97% 29.91 in 3.0 mi North 6.9 mph - 0.01 in   Overcast
3:53 AM 45.0 °F 40.6 °F 43.0 °F 93% 29.91 in 4.0 mi North 8.1 mph - N/A   Overcast
4:53 AM 44.1 °F 38.6 °F 42.1 °F 93% 29.91 in 6.0 mi North 10.4 mph - N/A   Overcast
5:53 AM 43.0 °F 37.2 °F 41.0 °F 93% 29.90 in 5.0 mi NNE 10.4 mph - N/A   Overcast
6:05 AM 42.8 °F 38.0 °F 41.0 °F 93% 29.89 in 5.0 mi NNE 8.1 mph - N/A   Overcast
6:53 AM 43.0 °F 38.8 °F 41.0 °F 93% 29.91 in 7.0 mi ENE 6.9 mph - N/A   Overcast
7:53 AM 44.1 °F 40.8 °F 41.0 °F 89% 29.91 in 8.0 mi NE 5.8 mph - N/A   Overcast
8:53 AM 44.1 °F 40.1 °F 41.0 °F 89% 29.92 in 7.0 mi ENE 6.9 mph - N/A   Overcast
9:53 AM 45.0 °F - 42.1 °F 90% 29.92 in 7.0 mi Calm Calm - N/A   Overcast
10:53 AM 46.0 °F 43.9 °F 42.1 °F 86% 29.91 in 6.0 mi NNE 4.6 mph - N/A   Overcast
11:53 AM 46.0 °F 43.9 °F 42.1 °F 86% 29.90 in 6.0 mi NNE 4.6 mph - N/A   Overcast
12:53 PM 46.9 °F - 42.1 °F 83% 29.86 in 6.0 mi East 4.6 mph - N/A   Haze
1:27 PM 46.4 °F - 42.8 °F 87% 29.85 in 6.0 mi Calm Calm - N/A   Haze
1:53 PM 48.0 °F - 42.1 °F 80% 29.86 in 6.0 mi North 3.5 mph - N/A   Haze
2:53 PM 46.9 °F - 42.1 °F 83% 29.86 in 6.0 mi North 5.8 mph - N/A   Haze
3:53 PM 46.9 °F - 42.1 °F 83% 29.87 in 5.0 mi North 5.8 mph - N/A   Haze
4:53 PM 46.0 °F 42.5 °F 43.0 °F 89% 29.89 in 4.0 mi North 6.9 mph - 0.00 in   Overcast
5:53 PM 46.0 °F 43.1 °F 42.1 °F 86% 29.89 in 6.0 mi NNE 5.8 mph - N/A   Overcast
7:17 PM 44.6 °F 39.2 °F 42.8 °F 93% 29.89 in 7.0 mi NNE 10.4 mph - N/A   Overcast
7:37 PM 44.6 °F 39.2 °F 41.0 °F 87% 29.90 in 6.0 mi North 10.4 mph - N/A   Overcast
7:53 PM 44.1 °F 38.1 °F 41.0 °F 89% 29.91 in 6.0 mi North 11.5 mph - N/A   Mostly Cloudy
8:02 PM 44.6 °F 39.7 °F 41.0 °F 87% 29.90 in 7.0 mi NNE 9.2 mph - N/A   Mostly Cloudy
8:10 PM 44.6 °F 40.7 °F 41.0 °F 87% 29.90 in 7.0 mi North 6.9 mph - N/A   Mostly Cloudy
9:53 PM 42.1 °F 38.4 °F 39.9 °F 92% 29.91 in 6.0 mi ESE 5.8 mph - 0.00 in   Mostly Cloudy
10:27 PM 42.8 °F 38.6 °F 39.2 °F 87% 29.92 in 5.0 mi NW 6.9 mph - N/A   Overcast
10:35 PM 42.8 °F 39.3 °F 41.0 °F 93% 29.92 in 5.0 mi NNW 5.8 mph - N/A   Overcast
10:53 PM 42.1 °F 39.2 °F 39.9 °F 92% 29.94 in 5.0 mi WNW 4.6 mph - N/A   Overcast
11:03 PM 42.8 °F 40.1 °F 39.2 °F 87% 29.94 in 6.0 mi WNW 4.6 mph - N/A   Overcast
11:53 PM 42.1 °F 38.4 °F 39.0 °F 89% 29.95 in 7.0 mi NNW 5.8 mph - N/A   Overcast